Weather History for Pinedale, WY

Change the Weather History Date:

Wednesday, January 30, 2013

  Actual Average (KBPI) Record (KBPI)
Temperature  
Mean Temperature 12 °F 11 °F  
Max Temperature 28 °F 26 °F 42 °F (2003)
Min Temperature -4 °F -2 °F -40 °F (1979)
Degree Days  
Heating Degree Days 53 54  
Month to date heating degree days 1620  
Since 1 July heating degree days 6059  
Cooling Degree Days 0 0  
Month to date cooling degree days 0  
Year to date cooling degree days 0  
Moisture  
Dew Point 15 °F    
Average Humidity 86    
Maximum Humidity 100    
Minimum Humidity 74    
Precipitation  
Precipitation 0.00 in 0.01 in 0.08 in (1981)
Month to date precipitation 0.30  
Year to date precipitation 0.30  
Sea Level Pressure  
Sea Level Pressure 29.94 in    
Wind  
Wind Speed 10 mph (NW)    
Max Wind Speed 28 mph    
Max Gust Speed 32 mph    
Visibility 9 miles    
Events Snow    
T = Trace of Precipitation, MM = Missing Value Source: NWS Daily Summary

Daily Weather History Graph

Daily Weather History Graph

Search for Another Location

Airport:

Trip Planner

Search our weather history database for the weather conditions in past years. The results will help you decide how hot, cold, wet, or windy it might be!

Date:

Astronomy

Jan. 30, 2013 Rise Set
Actual Time 7:35 AM MST 5:30 PM MST
Civil Twilight 7:05 AM MST 6:00 PM MST
Nautical Twilight 6:31 AM MST 6:34 PM MST
Astronomical Twilight 5:58 AM MST 7:07 PM MST
Moon 9:39 PM MST (1/30) 8:58 AM MST (1/30)
Length of Visible Light 10h 54m
Length of Day
9h 54m
Waning Gibbous, 87% of the Moon is Illuminated
Jan 30
Waning Gibbous
Feb 3
Last Quarter
Feb 10
New
Feb 17
First Quarter
Feb 25
Full

Hourly Weather History & Observations

Time (MST) Temp. Windchill Dew Point Humidity Pressure Visibility Wind Dir Wind Speed Gust Speed Precip Events Conditions
12:15 AM 3.2 °F - -0.4 °F 85% 29.93 in 10.0 mi Calm Calm - N/A   Scattered Clouds
12:35 AM 1.4 °F - -2.2 °F 85% 29.93 in 10.0 mi Calm Calm - N/A   Clear
12:55 AM -0.4 °F -10.4 °F -4.0 °F 85% 29.93 in 10.0 mi West 4.6 mph - N/A   Clear
1:15 AM -4.0 °F -12.4 °F -7.6 °F 85% 29.94 in 10.0 mi West 3.5 mph - N/A   Scattered Clouds
1:35 AM -0.4 °F -8.3 °F -4.0 °F 85% 29.93 in 10.0 mi NW 3.5 mph - N/A   Clear
1:55 AM 1.4 °F -6.2 °F -2.2 °F 85% 29.93 in 10.0 mi NNW 3.5 mph - N/A   Mostly Cloudy
2:15 AM 1.4 °F - -2.2 °F 85% 29.93 in 10.0 mi Calm Calm - N/A   Overcast
2:35 AM -0.4 °F -8.3 °F -4.0 °F 85% 29.93 in 10.0 mi East 3.5 mph - N/A   Overcast
2:55 AM 3.2 °F -4.2 °F -0.4 °F 85% 29.93 in 10.0 mi West 3.5 mph - N/A   Overcast
3:15 AM 6.8 °F -4.8 °F 3.2 °F 85% 29.92 in 7.0 mi WNW 6.9 mph - N/A   Overcast
3:35 AM 10.4 °F -5.4 °F 8.6 °F 92% 29.92 in 10.0 mi WNW 13.8 mph - N/A   Overcast
3:55 AM 12.2 °F -2.5 °F 8.6 °F 85% 29.92 in 10.0 mi WNW 12.7 mph - N/A   Overcast
4:15 AM 14.0 °F 2.0 °F 8.6 °F 79% 29.92 in 10.0 mi West 9.2 mph - N/A   Overcast
4:35 AM 14.0 °F -0.2 °F 10.4 °F 86% 29.93 in 10.0 mi WNW 12.7 mph - N/A Snow Light Snow
4:55 AM 15.8 °F 1.4 °F 10.4 °F 79% 29.93 in 10.0 mi WNW 13.8 mph - N/A Snow Light Snow
5:15 AM 14.0 °F -0.2 °F 10.4 °F 86% 29.92 in 10.0 mi WNW 12.7 mph - N/A Snow Light Snow
5:35 AM 14.0 °F 1.2 °F 10.4 °F 86% 29.92 in 10.0 mi NW 10.4 mph - N/A   Overcast
5:55 AM 14.0 °F 0.5 °F 10.4 °F 86% 29.92 in 10.0 mi NW 11.5 mph - N/A   Overcast
6:15 AM 15.8 °F 1.4 °F 12.2 °F 86% 29.91 in 10.0 mi NNW 13.8 mph - N/A   Overcast
6:35 AM 14.0 °F -0.8 °F 10.4 °F 86% 29.92 in 10.0 mi NW 13.8 mph - N/A   Scattered Clouds
6:55 AM 14.0 °F 0.5 °F 10.4 °F 86% 29.93 in 10.0 mi WNW 11.5 mph - N/A   Clear
7:15 AM 14.0 °F 0.5 °F 10.4 °F 86% 29.93 in 10.0 mi West 11.5 mph - N/A   Clear
7:35 AM 14.0 °F 0.5 °F 10.4 °F 86% 29.93 in 10.0 mi WNW 11.5 mph - N/A   Scattered Clouds
7:55 AM 15.8 °F 0.3 °F 12.2 °F 86% 29.93 in 7.0 mi WNW 16.1 mph - N/A   Scattered Clouds
8:15 AM 17.6 °F 3.7 °F 14.0 °F 86% 29.93 in 10.0 mi WNW 13.8 mph - N/A   Mostly Cloudy
8:35 AM 19.4 °F 6.6 °F 14.0 °F 80% 29.93 in 10.0 mi WNW 12.7 mph - N/A   Overcast
8:55 AM 19.4 °F 5.5 °F 14.0 °F 80% 29.93 in 10.0 mi NW 15.0 mph - N/A   Overcast
9:15 AM 19.4 °F 6.6 °F 14.0 °F 80% 29.93 in 10.0 mi WNW 12.7 mph - N/A   Overcast
9:35 AM 21.2 °F 8.9 °F 14.0 °F 74% 29.93 in 10.0 mi WNW 12.7 mph - N/A   Overcast
9:55 AM 21.2 °F 8.9 °F 15.8 °F 80% 29.93 in 10.0 mi NW 12.7 mph - N/A   Overcast
10:15 AM 21.2 °F 7.8 °F 17.6 °F 86% 29.93 in 10.0 mi NW 15.0 mph - N/A   Overcast
10:35 AM 23.0 °F 10.6 °F 17.6 °F 80% 29.94 in 5.0 mi NW 13.8 mph - N/A   Haze
10:55 AM 23.0 °F 11.1 °F 19.4 °F 86% 29.94 in 10.0 mi NW 12.7 mph - N/A   Overcast
11:15 AM 23.0 °F 11.1 °F 19.4 °F 86% 29.95 in 4.0 mi NW 12.7 mph - N/A Snow Light Snow
11:35 AM 23.0 °F 10.1 °F 19.4 °F 86% 29.93 in 3.0 mi NW 15.0 mph - N/A Snow Light Snow
11:55 AM 24.8 °F 11.9 °F 19.4 °F 80% 29.93 in 7.0 mi NW 16.1 mph - N/A   Overcast
12:15 PM 24.8 °F 11.9 °F 21.2 °F 86% 29.92 in 2.5 mi NW 16.1 mph - N/A Snow Light Snow
12:35 PM 26.6 °F 13.4 °F 21.2 °F 80% 29.91 in 7.0 mi NW 18.4 mph - N/A   Overcast
12:55 PM 26.6 °F 13.1 °F 21.2 °F 80% 29.90 in 10.0 mi NW 19.6 mph - N/A   Mostly Cloudy
1:15 PM 28.4 °F 13.3 °F 21.2 °F 74% 29.90 in 10.0 mi WNW 27.6 mph 32.2 mph N/A   Mostly Cloudy
1:35 PM 28.4 °F 15.1 °F 21.2 °F 74% 29.90 in 2.0 mi NW 20.7 mph 31.1 mph N/A   Haze
1:55 PM 28.4 °F 14.1 °F 21.2 °F 74% 29.90 in 10.0 mi NW 24.2 mph 29.9 mph N/A   Scattered Clouds
2:15 PM 28.4 °F 14.7 °F 21.2 °F 74% 29.90 in 10.0 mi NW 21.9 mph 27.6 mph N/A   Scattered Clouds
2:35 PM 28.4 °F 15.1 °F 21.2 °F 74% 29.91 in 7.0 mi NW 20.7 mph 28.8 mph N/A   Scattered Clouds
2:55 PM 28.4 °F 14.7 °F 21.2 °F 74% 29.92 in 7.0 mi NW 21.9 mph 29.9 mph N/A   Clear
3:15 PM 26.6 °F 12.0 °F 21.2 °F 80% 29.92 in 10.0 mi NW 23.0 mph - N/A   Clear
3:35 PM 28.4 °F 14.7 °F 21.2 °F 74% 29.92 in 10.0 mi NW 21.9 mph 26.5 mph N/A   Clear
3:55 PM 26.6 °F 12.4 °F 21.2 °F 80% 29.93 in 10.0 mi NW 21.9 mph - N/A   Clear
4:15 PM 26.6 °F 13.4 °F 21.2 °F 80% 29.93 in 10.0 mi NW 18.4 mph - N/A   Scattered Clouds
4:35 PM 24.8 °F 11.1 °F 21.2 °F 86% 29.93 in 10.0 mi NW 18.4 mph - N/A   Scattered Clouds
4:55 PM 23.0 °F 11.1 °F 19.4 °F 86% 29.94 in 10.0 mi NNW 12.7 mph - N/A   Clear
5:15 PM 21.2 °F 10.1 °F 17.6 °F 86% 29.95 in 10.0 mi NNW 10.4 mph - N/A   Scattered Clouds
5:35 PM 21.2 °F 9.5 °F 17.6 °F 86% 29.95 in 10.0 mi NW 11.5 mph - N/A   Mostly Cloudy
5:55 PM 21.2 °F 8.3 °F 19.4 °F 93% 29.95 in 10.0 mi NW 13.8 mph - N/A   Scattered Clouds
6:15 PM 19.4 °F 6.6 °F 19.4 °F 100% 29.95 in 10.0 mi NNW 12.7 mph - N/A   Scattered Clouds
6:35 PM 21.2 °F 8.9 °F 19.4 °F 93% 29.95 in 10.0 mi NW 12.7 mph - N/A   Scattered Clouds
6:55 PM 21.2 °F 8.9 °F 19.4 °F 93% 29.95 in 10.0 mi NW 12.7 mph - N/A   Scattered Clouds
7:15 PM 23.0 °F 10.1 °F 19.4 °F 86% 29.95 in 10.0 mi NW 15.0 mph - N/A   Scattered Clouds
7:35 PM 21.2 °F 8.9 °F 19.4 °F 93% 29.95 in 10.0 mi NW 12.7 mph - N/A   Scattered Clouds
7:55 PM 21.2 °F 10.1 °F 19.4 °F 93% 29.95 in 10.0 mi WNW 10.4 mph - N/A Snow Light Snow
8:15 PM 21.2 °F 10.9 °F 19.4 °F 93% 29.95 in 7.0 mi NW 9.2 mph - N/A Snow Light Snow
8:35 PM 19.4 °F 10.4 °F 19.4 °F 100% 29.96 in 10.0 mi West 6.9 mph - N/A   Clear
8:55 PM 19.4 °F 10.4 °F 19.4 °F 100% 29.96 in 10.0 mi West 6.9 mph - N/A   Mostly Cloudy
9:15 PM 23.0 °F 13.1 °F 21.2 °F 93% 29.97 in 10.0 mi WNW 9.2 mph - N/A   Mostly Cloudy
9:35 PM 21.2 °F 13.6 °F 19.4 °F 93% 29.96 in 5.0 mi WNW 5.8 mph - N/A Snow Light Snow
9:55 PM 23.0 °F 12.4 °F 21.2 °F 93% 29.97 in 5.0 mi West 10.4 mph - N/A Snow Light Snow
10:15 PM 24.8 °F 17.9 °F 23.0 °F 93% 29.97 in 1.5 mi WNW 5.8 mph - N/A Snow Light Snow
10:35 PM 24.8 °F 14.6 °F 23.0 °F 93% 29.97 in 10.0 mi WNW 10.4 mph - N/A Snow Light Snow
10:55 PM 21.2 °F 10.1 °F 19.4 °F 93% 29.97 in 10.0 mi NW 10.4 mph - N/A   Scattered Clouds
11:15 PM 21.2 °F 8.9 °F 21.2 °F 100% 29.98 in 10.0 mi WNW 12.7 mph - N/A   Scattered Clouds
11:35 PM 23.0 °F 11.1 °F 21.2 °F 93% 29.99 in 10.0 mi NW 12.7 mph - N/A   Scattered Clouds
11:55 PM 24.8 °F 11.9 °F 23.0 °F 93% 29.99 in 10.0 mi WNW 16.1 mph - N/A   Mostly Cloudy